Погода в Боровой

Россия / Смоленская область     54°46′26″N   31°55′25″E
темп.,
°C
ветер,
м/с
пор.,
м/с
влажн.,
%
обл.,
%
осадки,
мм/ч
давл.,
гПа
погр.,
м
6 марта, сб
сб600:00−6сз3690100 0.3 1018220
03:00−8сз359099 0.4 101995
06:00−10зсз34900 0.0 101960
09:00−9зсз36880 0.0 1020175
12:00−4зсз46740 0.0 1021951
15:00−4зсз577228 0.1 10191222
18:00−5з378034 0.1 1018151
21:00−7юз5118121 0.1 1017224
7 марта, вс
вс700:00−5зюз71477100 0.0 1014535
03:00−5юз81681100 0.0 1010699
06:00−4юз101792100 0.2 1004929
09:00−2зюз122093100 2.4 9981209
12:00−4сз131883100 1.7 9991444
15:00−3зсз9156267 1.7 10022117
18:00−5зюз6157128 0.0 1001640
21:00−5зюз8176942 0.0 998746
8 марта, пн
пн800:00−6з101786100 0.6 9981132
03:00−9зсз10178090 0.6 10021000
06:00−10сз7148682 0.0 1004676
09:00−9зсз6128984 0.0 1006821
12:00−7зсз81083100 0.1 10071043
15:00−6зсз81183100 0.3 10091188
18:00−7сз51087100 0.1 1011600
21:00−10ссз41089100 0.1 1014304
9 марта, вт
вт900:00−11сз499189 0.0 1016261
03:00−13сз499469 0.0 1017209
06:00−14сз489432 0.0 1019200
09:00−13сз479340 0.0 1021425
12:00−9зсз478138 0.0 1021516
15:00−5з6107861 0.0 1020919
18:00−6з5127766 0.0 1019412
21:00−7з6157565 0.0 1019401
10 марта, ср
ср1000:00−7з6147789 0.0 1019387
03:00−8з5128294 0.0 1019314
06:00−8зюз5118698 0.0 1018286
09:00−7зюз5108799 0.0 1017347
12:00−4зюз5883100 0.0 1016573
15:00−2зюз587897 0.0 1015844
18:00−4юз378595 0.0 1013157
21:00−6ююз498548 0.0 1013194